Kankakee, IL

11:15 PM CDT on April 24, 2018 (GMT -0500)
Greater Kankakee

Weather History for KIKK - October, 2014

Change the Weather History Date:

Thursday, October 23, 2014

  Actual Average Record
Temperature  
Mean Temperature 46 °F -  
Max Temperature 60 °F 63 °F 80 °F (1975)
Min Temperature 33 °F 37 °F 24 °F (1976)
Degree Days  
Heating Degree Days 18    
Moisture  
Dew Point 40 °F    
Average Humidity 78    
Maximum Humidity 100    
Minimum Humidity 51    
Precipitation  
Precipitation 0.00 in - - ()
Sea Level Pressure  
Sea Level Pressure 30.18 in    
Wind  
Wind Speed 4 mph (South)    
Max Wind Speed 12 mph    
Max Gust Speed 18 mph    
Visibility 8 miles    
Events      
Averages and records for this station are not official NWS values.
T = Trace of Precipitation, MM = Missing Value Source: NWS Daily Summary

Daily Weather History Graph

Daily Weather History Graph

Search for Another Location

Airport or City:

Astronomy

Oct. 23, 2014 Rise Set
Actual Time 7:11 AM CDT 5:58 PM CDT
Civil Twilight 6:43 AM CDT 6:26 PM CDT
Nautical Twilight 6:11 AM CDT 6:59 PM CDT
Astronomical Twilight 5:39 AM CDT 7:30 PM CDT
Moon 6:51 AM CDT (10/23) 6:00 PM CDT (10/23)
Length of Visible Light 11h 43m
Length of Day
10h 47m
Waning Crescent, 0% of the Moon is Illuminated
Oct 23
Waning Crescent
Oct 23
New
Oct 30
First Quarter
Nov 6
Full
Nov 14
Last Quarter

Hourly Weather History & Observations

Time (CDT) Temp. Windchill Dew Point Humidity Pressure Visibility Wind Dir Wind Speed Gust Speed Precip Events Conditions
12:15 AM 37.6 °F - 35.8 °F 93% 30.27 in 10.0 mi Calm Calm - N/A   Clear
12:35 AM 37.4 °F - 36.0 °F 95% 30.27 in 10.0 mi Calm Calm - N/A   Clear
12:55 AM 36.7 °F - 35.4 °F 95% 30.26 in 7.0 mi Calm Calm - N/A   Clear
1:15 AM 35.6 °F 32.8 °F 34.3 °F 95% 30.27 in 7.0 mi East 3.5 mph - N/A   Clear
1:35 AM 35.1 °F 32.2 °F 34.0 °F 96% 30.27 in 7.0 mi East 3.5 mph - N/A   Clear
1:55 AM 34.2 °F 29.0 °F 33.3 °F 97% 30.26 in 7.0 mi ESE 5.8 mph - N/A   Clear
2:15 AM 34.3 °F 30.2 °F 33.3 °F 96% 30.26 in 7.0 mi ESE 4.6 mph - N/A   Clear
2:35 AM 35.2 °F 31.2 °F 34.3 °F 97% 30.25 in 7.0 mi ESE 4.6 mph - N/A   Clear
2:55 AM 36.1 °F 32.3 °F 34.7 °F 94% 30.24 in 7.0 mi ESE 4.6 mph - N/A   Clear
3:15 AM 35.8 °F - 34.7 °F 96% 30.25 in 7.0 mi Calm Calm - N/A   Clear
3:35 AM 35.1 °F - 34.0 °F 96% 30.24 in 7.0 mi Calm Calm - N/A   Clear
3:55 AM 35.1 °F 31.0 °F 33.8 °F 95% 30.24 in 7.0 mi ESE 4.6 mph - N/A   Clear
4:15 AM 34.0 °F 31.0 °F 33.1 °F 96% 30.24 in 5.0 mi ESE 3.5 mph - N/A   Clear
4:35 AM 34.0 °F - 33.3 °F 97% 30.24 in 5.0 mi Calm Calm - N/A   Clear
4:55 AM 33.8 °F 30.8 °F 33.8 °F 100% 30.24 in 5.0 mi ESE 3.5 mph - N/A   Clear
5:15 AM 33.1 °F - 32.4 °F 97% 30.24 in 5.0 mi Calm Calm - N/A   Clear
5:35 AM 33.8 °F 30.8 °F 32.9 °F 96% 30.24 in 5.0 mi ESE 3.5 mph - N/A   Clear
5:55 AM 34.0 °F - 33.1 °F 96% 30.24 in 5.0 mi Calm Calm - N/A   Clear
6:15 AM 33.8 °F - 32.9 °F 96% 30.24 in 5.0 mi Calm Calm - N/A   Clear
6:35 AM 33.8 °F 30.8 °F 33.1 °F 97% 30.23 in 5.0 mi SE 3.5 mph - N/A   Clear
6:55 AM 33.1 °F - 32.4 °F 97% 30.23 in 5.0 mi Calm Calm - N/A   Clear
7:15 AM 33.4 °F - 32.7 °F 97% 30.23 in 3.0 mi Calm Calm - N/A   Clear
7:35 AM 34.7 °F 31.8 °F 34.2 °F 98% 30.23 in 4.0 mi SE 3.5 mph - N/A   Clear
7:55 AM 36.5 °F 33.9 °F 35.6 °F 97% 30.24 in 4.0 mi SE 3.5 mph - N/A   Clear
8:15 AM 37.9 °F - 36.7 °F 95% 30.24 in 4.0 mi Calm Calm - N/A   Clear
8:35 AM 41.5 °F 37.8 °F 39.0 °F 91% 30.24 in 7.0 mi South 5.8 mph - N/A   Clear
8:55 AM 42.8 °F 40.1 °F 39.9 °F 90% 30.25 in 7.0 mi South 4.6 mph - N/A   Clear
9:15 AM 45.3 °F 42.3 °F 41.9 °F 88% 30.24 in 7.0 mi South 5.8 mph - N/A   Clear
9:35 AM 47.5 °F - 42.8 °F 84% 30.24 in 10.0 mi South 9.2 mph - N/A   Clear
9:55 AM 49.6 °F - 43.9 °F 81% 30.24 in 10.0 mi South 9.2 mph - N/A   Clear
10:15 AM 51.4 °F - 44.2 °F 76% 30.23 in 10.0 mi South 5.8 mph - N/A   Clear
10:35 AM 53.1 °F - 45.0 °F 74% 30.23 in 10.0 mi South 6.9 mph - N/A   Clear
10:55 AM 52.9 °F - 44.2 °F 72% 30.23 in 10.0 mi SSW 6.9 mph - N/A   Clear
11:15 AM 55.8 °F - 44.8 °F 67% 30.22 in 10.0 mi SSW 10.4 mph - N/A   Clear
11:35 AM 56.5 °F - 44.4 °F 64% 30.22 in 10.0 mi SSW 11.5 mph 16.1 mph N/A   Clear
11:55 AM 59.0 °F - 44.6 °F 59% 30.21 in 10.0 mi SW 11.5 mph - N/A   Clear
12:15 PM 59.0 °F - 45.1 °F 60% 30.20 in 10.0 mi SSW 9.2 mph 18.4 mph N/A   Clear
12:35 PM 59.5 °F - 44.8 °F 58% 30.19 in 10.0 mi South 10.4 mph - N/A   Clear
12:55 PM 60.1 °F - 43.5 °F 54% 30.18 in 10.0 mi SSW 4.6 mph - N/A   Clear
1:15 PM 59.4 °F - 43.5 °F 56% 30.17 in 10.0 mi SSW 8.1 mph - N/A   Clear
1:35 PM 57.7 °F - 43.3 °F 59% 30.16 in 10.0 mi South 8.1 mph - N/A   Clear
1:55 PM 58.5 °F - 43.9 °F 58% 30.16 in 10.0 mi South 11.5 mph - N/A   Clear
2:15 PM 57.6 °F - 43.5 °F 59% 30.16 in 10.0 mi SSW 10.4 mph - N/A   Clear
2:35 PM 59.7 °F - 44.4 °F 57% 30.15 in 10.0 mi SSW 6.9 mph 17.3 mph N/A   Clear
2:55 PM 59.2 °F - 43.3 °F 56% 30.11 in 10.0 mi SSE 6.9 mph - N/A   Clear
3:15 PM 59.9 °F - 43.9 °F 55% 30.12 in 10.0 mi South 9.2 mph - N/A   Clear
3:35 PM 60.8 °F - 44.1 °F 54% 30.12 in 10.0 mi South 8.1 mph - N/A   Clear
3:55 PM 59.5 °F - 42.4 °F 53% 30.12 in 10.0 mi SSW 11.5 mph - N/A   Clear
4:15 PM 59.9 °F - 41.7 °F 51% 30.10 in 10.0 mi SSE 9.2 mph - N/A   Clear
4:35 PM 58.1 °F - 43.2 °F 58% 30.11 in 10.0 mi South 8.1 mph - N/A   Clear
4:55 PM 57.2 °F - 43.0 °F 59% 30.11 in 10.0 mi South 6.9 mph - N/A   Clear
5:15 PM 55.9 °F - 43.5 °F 63% 30.10 in 10.0 mi South 5.8 mph - N/A   Clear
5:35 PM 55.0 °F - 42.3 °F 62% 30.10 in 10.0 mi SSE 4.6 mph - N/A   Clear
5:55 PM 54.1 °F - 42.3 °F 64% 30.09 in 10.0 mi SSE 5.8 mph - N/A   Clear
6:15 PM 53.6 °F - 42.4 °F 66% 30.09 in 10.0 mi South 5.8 mph - N/A   Clear
6:35 PM 52.3 °F - 42.3 °F 69% 30.09 in 10.0 mi South 5.8 mph - N/A   Clear
6:55 PM 52.7 °F - 42.6 °F 69% 30.09 in 10.0 mi South 3.5 mph - N/A   Scattered Clouds
7:15 PM 51.4 °F - 42.6 °F 72% 30.10 in 10.0 mi South 4.6 mph - N/A   Clear
7:35 PM 51.6 °F - 42.3 °F 70% 30.09 in 10.0 mi SSE 4.6 mph - N/A   Clear
7:55 PM 50.4 °F - 42.1 °F 73% 30.10 in 10.0 mi SSE 5.8 mph - N/A   Mostly Cloudy
8:15 PM 50.4 °F - 42.3 °F 74% 30.10 in 10.0 mi Calm Calm - N/A   Mostly Cloudy
8:35 PM 48.7 °F - 42.6 °F 79% 30.10 in 10.0 mi Calm Calm - N/A   Overcast
8:55 PM 50.7 °F - 43.0 °F 75% 30.10 in 10.0 mi Calm Calm - N/A   Overcast
9:15 PM 50.9 °F - 43.7 °F 76% 30.10 in 10.0 mi South 3.5 mph - N/A   Overcast
9:35 PM 50.9 °F - 43.7 °F 76% 30.11 in 10.0 mi South 3.5 mph - N/A   Overcast
9:55 PM 51.1 °F - 43.7 °F 76% 30.11 in 10.0 mi South 3.5 mph - N/A   Overcast
10:15 PM 51.1 °F - 43.3 °F 75% 30.10 in 10.0 mi South 4.6 mph - N/A   Overcast
10:35 PM 51.1 °F - 43.5 °F 75% 30.10 in 10.0 mi South 3.5 mph - N/A   Overcast
10:55 PM 51.4 °F - 43.7 °F 75% 30.10 in 10.0 mi South 4.6 mph - N/A   Overcast
11:15 PM 51.3 °F - 43.7 °F 75% 30.10 in 10.0 mi South 4.6 mph - N/A   Overcast
11:35 PM 51.4 °F - 43.7 °F 75% 30.09 in 10.0 mi South 5.8 mph - N/A   Overcast
11:55 PM 51.1 °F - 44.1 °F 77% 30.09 in 10.0 mi South 4.6 mph - N/A   Overcast